Terug naar catalogus

USA 173

ActiefMilitairLEO
NORAD 28095·PAYLOAD·🇺🇸 United States

Gelanceerd Dec 2, 2003 vanaf Vandenberg Space Force Base

Loading…

Volgende Passages (komende 24 uur)

TLE

VerouderdSource: Mike McCants

Epoch: Sep 5, 2026, 01:43 UTC

1 28095U 03054A   26248.07208579 0.00000000  00000-0  00000-0 0    09
2 28095  63.4041 327.0869 0577984  10.0055 349.9945 13.42084996    09

Volg USA 173 in realtime met AllMySat

Download on the App Store